Theta_e
317 317 318 318 319 320 320 320 321 322 322 322 323 322 323 323 324 324 324 325 325 327 327 326 326 325 325 325 324 324 321 310 308 307 305 309 316 323 323 325 327 325 319 315 314 307 303 304 304 306 305 305 306 302 306 305 306 305 297 296 294 295 293 295 294 295 297 295 298 298 299 297 295 297 299 302 299 298 297 295 296 298 297 298 298 299 300 300
317 317 318 318 319 320 320 321 321 322 321 322 322 323 323 323 324 324 324 325 326 326 326 325 325 325 324 324 323 321 317 312 307 307 305 314 321 323 323 325 325 321 319 312 307 306 303 302 302 303 301 300 306 300 304 301 304 299 297 296 292 296 296 298 297 298 296 295 297 298 299 297 295 297 298 297 294 294 294 294 295 294 296 297 298 298 299 299
316 317 318 318 319 320 320 320 321 321 321 322 323 323 323 323 324 324 325 325 325 326 325 324 325 325 325 323 323 321 316 309 306 303 309 320 322 322 322 326 320 320 314 309 309 308 305 303 303 301 301 299 301 299 302 302 301 301 296 293 296 297 297 298 298 296 298 297 296 296 297 296 295 295 298 295 292 293 290 290 292 292 292 294 296 297 298 298
316 317 318 318 319 319 320 320 321 321 322 323 323 323 323 323 324 324 325 325 326 325 324 324 323 325 324 323 317 320 314 307 300 304 311 321 320 320 320 324 322 320 316 313 310 308 308 306 304 302 301 298 300 300 299 302 300 301 297 296 296 298 296 298 298 297 297 298 296 297 298 295 294 294 295 294 293 290 291 292 291 290 292 293 295 296 297 296
316 317 318 318 318 319 319 320 320 321 322 323 323 323 323 324 324 325 325 324 325 325 325 324 325 324 322 321 315 314 309 301 300 307 311 318 319 319 319 320 319 317 314 311 309 308 307 304 303 302 302 299 300 300 299 300 300 299 298 298 298 297 295 298 297 297 296 297 297 297 294 294 296 294 292 292 289 287 290 292 293 293 293 293 293 294 295 295
316 317 317 317 318 318 319 319 321 321 322 322 323 323 323 324 324 325 324 325 325 326 324 325 324 323 320 318 317 315 306 292 304 305 319 317 318 319 317 318 319 316 314 311 307 306 305 303 302 301 300 300 297 298 299 300 301 297 298 298 298 297 296 298 297 295 296 296 295 295 295 295 292 290 292 291 289 290 293 293 293 294 293 293 293 293 292 293
316 316 317 317 317 318 318 319 320 321 322 322 322 323 324 324 324 324 325 324 325 324 325 324 323 323 320 316 316 313 303 301 305 308 315 316 316 318 316 315 318 319 316 309 307 305 304 302 302 301 299 298 297 298 299 298 301 299 296 297 297 298 296 297 295 296 296 296 294 297 299 293 292 288 291 289 291 292 293 293 294 294 294 293 291 291 291 292
316 316 316 316 317 317 318 319 320 321 321 322 323 323 324 324 324 324 324 324 324 324 324 324 322 320 320 318 313 304 301 299 306 310 312 315 310 311 314 316 314 314 310 307 307 303 304 300 300 301 300 299 297 299 300 299 300 299 297 296 297 298 296 296 296 296 296 296 297 296 292 291 292 290 291 289 291 292 292 293 293 292 292 291 291 291 291 291
316 316 316 316 316 317 318 319 320 321 321 322 323 324 324 324 323 323 323 324 324 325 325 323 319 320 318 317 309 302 297 304 309 309 309 308 308 309 314 310 312 310 307 307 307 304 303 299 301 300 299 298 299 301 301 299 296 300 296 297 296 295 296 296 297 296 295 296 296 294 292 292 292 293 289 290 291 292 292 292 291 292 291 290 290 290 290 290
316 316 316 316 316 317 318 319 320 320 321 322 323 323 324 324 323 323 323 324 325 326 326 321 320 314 319 314 310 297 301 308 308 309 308 308 310 311 309 310 310 309 306 305 305 304 301 300 299 301 301 298 301 299 300 300 296 300 299 297 295 295 295 296 296 296 296 295 295 292 291 291 293 293 287 290 291 292 291 290 291 291 290 290 290 290 291 290
316 316 316 316 316 318 318 319 320 320 321 321 322 323 323 323 322 323 323 324 324 325 324 320 319 315 307 306 300 295 307 307 309 308 307 309 308 308 307 308 309 308 307 305 304 305 305 303 304 302 304 298 301 297 299 299 300 298 297 297 296 294 295 296 296 295 296 294 295 293 290 291 291 290 287 289 291 291 289 290 290 290 290 290 290 290 290 290
316 316 315 316 317 318 319 319 319 320 321 321 322 322 322 321 321 323 324 324 323 322 320 318 316 314 308 303 299 298 308 308 310 308 308 308 307 307 308 309 309 309 308 304 303 304 305 307 308 305 298 300 297 299 298 300 299 298 297 295 295 294 293 295 293 295 296 293 295 295 290 288 288 285 288 289 291 290 289 289 289 289 289 290 290 290 290 290
315 315 315 316 317 318 319 319 319 320 320 321 321 322 321 321 321 322 323 322 323 322 322 318 318 314 312 299 300 306 309 310 309 307 308 310 308 309 309 310 310 310 309 305 303 305 308 307 305 301 303 302 300 298 299 300 297 298 296 296 293 292 292 294 296 295 295 294 296 295 284 289 286 287 288 290 290 289 289 288 288 289 289 289 289 289 290 290
315 315 315 316 318 318 318 319 319 320 320 321 321 321 320 321 321 320 321 320 320 323 316 319 317 314 306 299 304 306 309 310 309 306 306 309 309 308 309 309 310 309 310 307 306 308 307 307 304 302 306 302 299 301 297 296 298 294 298 296 289 289 289 294 294 294 292 296 295 295 284 287 286 286 288 289 289 288 287 288 288 288 288 289 289 289 289 289
314 315 316 317 317 318 318 319 319 319 320 321 320 320 320 320 321 321 321 322 321 321 322 316 320 314 303 300 307 308 314 311 305 304 306 306 306 307 306 308 306 306 306 306 305 305 305 306 305 301 299 301 301 298 297 295 297 296 291 287 291 287 288 293 294 293 290 293 296 293 285 289 286 286 288 289 289 288 287 287 287 287 288 288 288 288 288 288
314 315 316 317 317 317 318 319 319 319 320 320 319 319 320 319 319 321 319 321 320 317 319 322 313 308 300 296 301 313 307 302 302 305 306 307 305 304 306 306 307 306 306 304 305 305 305 302 300 300 300 303 296 294 295 292 291 293 289 286 286 288 288 291 292 295 295 293 294 292 285 289 285 287 287 288 288 288 287 287 287 287 287 287 288 288 288 288
315 315 317 317 317 317 318 318 318 318 319 319 319 320 316 317 320 318 318 316 314 318 310 307 309 311 296 303 309 301 300 303 306 304 305 307 306 305 306 305 304 305 306 306 305 305 302 300 300 300 300 294 294 293 288 285 285 286 290 286 287 285 287 286 291 294 294 293 289 293 288 289 287 287 287 288 288 287 286 286 286 287 287 287 287 287 287 287
315 316 317 317 317 317 317 318 318 318 318 318 318 321 315 317 317 319 319 321 318 316 313 314 310 307 298 303 295 298 303 302 303 303 305 306 306 305 304 303 305 304 304 303 302 301 303 299 300 293 294 293 291 289 284 279 282 284 285 284 284 287 288 287 287 292 293 293 289 290 290 289 287 287 286 286 287 287 286 286 286 286 286 287 287 287 286 287
315 316 316 316 317 317 317 318 318 318 315 317 318 317 319 317 322 312 310 308 310 304 299 299 301 292 289 296 301 301 302 304 304 303 302 304 304 306 305 305 304 302 300 297 297 300 301 297 298 291 287 288 287 288 285 285 287 287 287 285 286 284 286 287 289 293 293 289 288 288 288 289 287 286 286 286 287 286 286 286 286 286 286 286 286 286 286 286
316 316 316 316 317 317 317 317 318 316 313 318 327 325 319 308 305 302 307 306 301 300 300 302 303 302 298 299 299 302 306 305 300 301 302 304 303 303 302 303 303 302 300 294 299 298 301 289 286 286 287 289 289 290 289 289 289 289 290 289 287 286 287 289 290 293 294 288 287 288 289 289 289 287 286 286 286 286 285 285 285 285 285 285 285 286 286 286
315 315 316 316 317 317 318 317 317 315 311 327 319 315 304 304 300 294 300 300 302 304 301 301 301 298 297 299 301 300 297 299 302 300 301 305 305 301 299 302 302 296 296 297 298 301 298 288 286 290 290 290 289 291 290 291 291 289 288 286 285 287 283 287 288 292 294 288 286 289 289 289 289 288 286 286 286 284 285 284 284 284 285 285 285 285 286 286
315 315 315 316 317 317 317 317 316 316 312 326 315 306 305 305 308 313 309 296 302 303 302 301 303 300 302 301 302 299 300 297 299 299 302 303 301 298 299 299 297 293 298 299 297 294 289 286 289 290 292 292 291 291 292 291 290 290 287 285 284 284 286 288 290 292 292 289 286 288 287 288 289 288 287 286 286 285 285 285 284 284 284 285 285 285 286 286
314 315 315 316 316 317 317 317 315 317 323 317 312 311 309 310 311 313 314 301 297 301 303 301 298 298 299 302 301 303 296 293 293 297 298 300 299 298 299 296 296 296 295 296 292 290 286 288 290 294 292 291 292 290 289 289 292 288 286 283 281 284 282 280 287 291 291 288 286 288 286 287 290 288 286 286 286 285 286 286 285 286 284 284 285 285 285 285
314 314 315 317 317 317 316 318 316 319 316 316 314 312 309 310 312 313 313 298 296 300 302 299 300 298 297 296 300 300 296 295 296 293 301 298 295 299 297 293 295 295 292 295 292 289 287 290 293 293 292 290 289 289 287 286 286 289 287 284 282 282 283 283 284 287 290 291 290 287 285 285 288 284 284 285 286 285 285 285 285 286 286 286 287 286 286 285
314 315 315 317 316 316 317 316 313 311 312 316 312 311 308 309 311 310 310 297 301 298 302 305 301 298 297 302 303 299 297 298 296 298 301 298 295 298 295 296 297 292 293 294 296 291 289 291 292 291 292 290 289 287 287 286 283 286 286 285 284 285 284 285 286 286 284 283 287 287 278 280 285 285 285 285 283 283 285 284 285 285 285 286 285 286 287 287
314 314 316 316 316 316 315 311 315 317 316 311 311 309 310 310 311 312 305 296 287 293 303 294 301 295 304 298 300 301 300 294 298 298 301 299 300 295 297 293 295 289 292 293 290 290 289 292 291 291 291 288 288 286 288 287 283 284 284 287 286 285 285 286 285 284 279 278 284 287 277 275 284 284 286 284 283 283 284 284 284 285 285 285 285 285 285 285
314 314 316 316 316 315 317 308 314 315 315 312 311 310 310 312 312 314 303 291 287 294 294 300 300 299 306 299 300 303 288 292 299 300 299 301 297 301 297 292 297 297 293 292 290 285 292 292 291 290 288 287 285 284 287 286 284 283 288 287 286 285 284 285 285 284 281 287 288 288 285 278 277 283 287 285 283 283 283 284 284 284 284 284 285 285 285 285
314 315 316 316 315 316 316 314 316 315 311 311 309 308 309 309 312 312 298 283 280 299 291 297 297 305 300 300 300 294 292 296 294 295 300 302 300 299 296 291 289 290 292 291 284 288 290 289 289 288 287 285 283 286 289 288 284 284 287 288 285 286 286 286 284 283 283 282 279 283 285 278 277 282 286 284 281 282 282 283 283 283 284 284 284 285 285 285
314 314 315 317 315 308 323 318 315 314 309 306 308 309 312 312 310 305 293 282 292 293 307 296 306 300 298 303 297 298 296 297 291 296 302 304 302 297 292 292 294 291 294 294 287 287 292 290 291 291 286 283 287 288 289 290 284 288 289 290 289 289 289 288 283 282 282 280 276 280 282 275 275 281 283 284 282 282 282 282 282 283 283 283 284 284 284 284
314 314 315 314 317 322 316 317 311 310 307 308 310 310 312 309 302 294 286 278 296 287 296 297 297 291 297 294 296 296 294 294 297 297 300 296 298 301 296 294 295 293 290 294 291 290 288 295 295 290 285 287 288 289 290 288 290 291 290 286 285 286 286 286 285 283 280 275 278 281 281 279 272 279 281 282 282 282 282 282 282 283 283 283 283 283 284 283
310 312 314 313 319 315 310 311 311 307 309 309 310 309 310 305 294 288 279 285 294 294 300 296 292 297 292 289 288 294 295 294 293 295 293 297 295 297 296 291 298 292 290 288 288 291 290 291 292 291 294 290 291 289 293 291 291 290 284 283 283 282 284 282 282 283 275 273 279 281 280 280 271 276 283 281 280 281 280 279 280 280 282 282 282 282 282 282
309 309 312 314 311 315 313 315 307 306 307 309 309 311 302 290 291 284 283 299 287 289 289 288 294 291 292 289 291 289 287 292 293 292 289 290 289 288 288 285 286 283 284 283 283 290 287 285 287 291 291 289 288 286 287 291 289 287 283 282 276 274 276 272 277 272 273 271 278 280 280 276 277 280 283 281 281 281 281 282 280 281 281 281 281 281 281 281
313 307 308 308 311 313 310 308 306 307 308 309 308 305 294 290 280 286 286 288 285 290 289 291 291 291 289 290 288 289 290 287 292 291 291 292 290 288 291 289 289 286 279 283 282 283 285 287 289 289 290 290 289 281 281 281 284 284 280 278 274 271 269 267 271 274 273 277 280 279 281 274 279 281 282 282 282 282 282 282 283 282 281 280 280 280 280 280
309 311 308 305 307 306 309 308 308 308 308 305 306 303 294 286 281 287 284 287 287 292 292 290 290 291 290 286 287 289 286 290 290 289 292 288 288 285 287 290 289 287 286 285 280 280 277 279 285 286 283 289 287 284 284 282 283 282 285 281 276 275 270 266 270 267 268 271 276 280 275 274 273 277 282 283 283 283 283 283 282 282 282 281 280 280 280 280
305 312 311 311 313 308 308 306 308 308 307 305 304 294 286 282 285 285 286 287 289 291 290 290 288 288 289 288 289 289 287 285 290 289 288 287 284 285 284 285 289 288 288 283 283 282 280 281 287 289 288 289 285 288 288 285 285 284 285 285 278 275 279 271 273 272 272 271 271 274 274 278 277 283 284 283 284 283 283 282 282 279 279 279 279 279 278 278
311 312 317 308 307 307 309 310 306 306 308 307 297 289 286 285 285 286 287 291 290 287 289 291 289 288 287 288 288 288 291 286 289 289 286 287 286 285 287 287 286 287 284 282 282 278 280 279 288 290 288 286 286 288 287 289 275 280 282 277 278 283 280 275 276 278 275 273 270 277 275 278 282 282 281 282 282 283 282 280 279 279 279 278 278 278 278 278
315 314 305 309 307 308 306 309 306 306 306 303 293 286 287 286 288 288 291 288 289 289 289 285 285 284 284 284 286 285 287 289 287 287 284 286 284 286 286 287 288 288 287 284 283 284 277 278 286 287 284 289 290 288 289 289 286 283 277 279 284 286 282 276 269 271 270 266 268 273 271 271 273 270 282 281 280 280 279 278 278 278 277 277 277 277 277 278
312 309 307 308 307 310 308 306 308 308 307 297 287 287 289 287 289 290 290 290 289 289 287 286 285 288 284 284 284 284 287 286 286 288 284 286 282 287 286 285 288 288 288 288 283 283 283 277 284 286 286 288 287 288 286 286 289 284 280 286 277 270 271 277 273 265 264 264 267 270 272 272 274 272 277 276 277 276 276 276 275 276 276 276 276 277 278 278
310 308 302 308 312 310 313 306 309 310 302 292 288 287 288 289 290 291 291 291 291 288 286 285 285 286 286 285 284 286 285 283 286 284 283 284 281 287 285 286 286 289 289 289 285 285 285 277 280 285 284 287 287 285 277 281 287 286 287 283 284 279 275 271 272 271 271 265 265 266 270 267 275 275 276 276 276 276 275 275 275 275 276 276 276 276 277 277
307 305 299 312 312 312 311 313 310 303 297 288 288 286 291 290 291 290 290 290 290 288 286 286 287 285 286 286 286 283 286 285 285 285 285 285 283 286 284 287 283 286 288 289 285 287 281 285 275 283 287 287 280 283 279 280 278 279 280 278 279 278 281 278 276 273 269 267 266 265 263 268 275 279 277 277 277 276 276 274 274 275 275 276 276 276 277 277
304 307 301 316 314 312 312 309 298 293 290 290 292 290 291 290 291 288 289 289 291 292 288 289 288 286 285 285 285 288 284 286 285 284 284 284 283 281 284 282 284 283 286 288 285 285 281 283 276 280 281 280 281 285 282 281 281 280 278 277 277 274 271 268 266 277 273 268 265 264 262 269 275 280 279 277 277 276 276 275 275 275 275 276 276 276 277 277
305 295 299 312 312 314 310 296 292 295 292 289 288 292 291 293 291 290 289 289 288 289 290 289 289 288 287 287 287 287 285 285 285 285 285 282 285 284 285 286 285 285 282 283 282 286 283 282 281 278 279 280 283 283 284 284 285 282 280 278 279 278 276 271 265 268 272 272 272 269 265 267 279 280 278 277 277 276 276 276 275 275 275 276 276 277 277 277
302 297 307 312 310 307 302 293 294 292 289 289 292 291 291 290 290 289 290 290 290 291 290 289 288 288 288 287 288 287 287 284 284 283 284 285 284 283 286 286 286 287 285 284 285 286 283 279 277 279 282 284 282 284 284 284 283 281 281 281 279 274 275 273 272 273 269 269 267 266 264 269 278 279 278 277 277 277 276 276 275 275 275 275 276 276 276 277
302 300 302 310 312 306 302 290 289 288 288 290 291 289 291 291 291 290 290 290 290 289 290 288 290 289 287 289 287 285 288 281 285 284 284 285 283 286 286 286 287 285 283 281 280 285 280 281 278 274 274 276 280 281 280 283 282 280 278 280 278 278 276 275 274 274 268 269 269 265 260 265 274 278 277 276 276 275 275 275 275 274 275 275 275 276 276 277
299 306 306 304 306 305 297 297 292 289 287 288 288 287 290 290 290 290 291 290 291 289 289 288 287 289 289 288 287 288 288 284 282 284 283 283 283 287 287 286 287 285 286 285 283 283 283 280 277 270 268 266 266 268 270 272 275 278 280 279 279 275 274 272 268 268 265 269 269 265 263 270 274 275 275 275 274 274 274 274 275 275 274 274 275 276 276 276
301 291 298 300 303 299 296 296 296 292 287 287 286 286 288 288 288 290 292 289 289 290 288 289 289 287 288 288 287 286 285 287 283 283 282 282 283 284 285 287 286 286 285 284 281 282 282 281 279 275 273 271 273 275 279 280 277 274 276 277 277 277 276 275 272 269 265 267 265 267 268 268 269 271 272 272 273 272 272 273 273 273 274 275 275 276 276 276
304 295 294 292 300 296 293 296 294 294 289 292 288 286 285 288 288 289 292 288 290 290 289 289 290 288 287 288 285 285 286 285 285 282 280 281 283 283 285 286 287 287 283 284 284 283 281 280 277 276 274 275 277 277 279 279 276 276 275 275 276 276 274 271 269 266 271 266 262 269 270 266 267 270 271 271 272 272 272 273 273 274 274 274 275 276 277 276
298 291 295 294 295 292 293 290 295 293 292 293 286 288 287 286 287 285 288 288 289 288 288 288 289 289 288 286 286 282 283 284 284 280 281 281 284 284 284 286 284 286 286 284 284 280 277 276 277 275 275 276 278 278 279 278 277 276 276 275 275 275 274 270 270 271 270 266 263 268 269 266 268 270 272 272 272 272 272 273 274 274 274 275 275 274 274 275
299 294 295 295 294 287 291 290 293 295 292 291 288 290 286 287 286 287 288 288 289 289 289 285 287 288 287 288 287 282 282 279 281 282 279 281 280 282 282 284 285 286 284 282 282 280 279 278 276 277 274 276 278 278 278 276 275 275 275 276 275 274 272 272 271 271 270 268 269 269 268 268 270 271 272 272 274 273 273 274 274 274 273 274 274 274 274 274
294 296 292 295 293 290 288 290 291 295 289 290 288 288 288 288 287 288 288 288 286 288 291 287 288 288 288 287 287 282 282 284 283 281 283 280 282 283 282 282 282 286 284 280 281 282 280 275 277 275 273 275 277 277 277 276 275 274 275 275 274 273 272 272 271 271 270 269 269 269 267 267 272 274 273 273 274 274 274 273 272 273 273 273 273 273 274 274
299 301 301 296 291 288 288 288 293 294 291 292 290 287 291 289 288 289 288 290 288 287 289 287 289 288 288 287 286 285 286 285 286 285 285 283 281 283 282 281 285 282 282 280 280 280 278 275 278 275 271 273 276 275 275 276 275 273 273 273 271 270 268 270 268 271 268 266 268 267 265 265 271 273 273 273 273 272 271 271 272 272 273 273 273 273 274 274
301 299 300 302 291 287 289 289 289 294 288 289 291 291 290 288 289 290 287 290 289 290 290 290 289 288 287 286 284 285 287 287 286 286 286 287 288 287 286 284 283 281 279 280 279 277 277 275 274 273 270 271 275 275 274 274 273 271 271 271 271 271 271 272 272 272 271 270 266 264 265 270 271 272 270 271 272 271 271 272 272 272 273 273 273 273 273 273
Wind_Speed
7 7 8 8 9 9 10 10 10 11 11 12 11 11 10 10 9 8 7 7 7 7 8 8 8 9 8 8 9 11 13 1 13 12 12 5 3 10 12 10 9 10 11 10 9 6 5 5 5 1 6 5 2 4 4 1 2 3 6 5 6 3 4 7 7 6 7 10 10 12 8 9 7 11 7 6 7 7 11 14 11 12 14 13 13 13 14 15
7 7 8 9 9 10 10 11 11 11 11 11 11 11 10 10 9 8 7 7 7 7 8 8 8 7 6 7 7 8 9 4 11 12 9 4 8 10 11 9 7 7 11 7 6 6 5 3 2 4 5 5 4 2 2 2 2 5 4 4 6 5 5 6 6 6 9 9 11 10 7 8 9 8 6 5 11 10 10 12 12 12 14 14 15 15 16 16
7 8 9 9 10 10 11 11 11 11 11 11 11 11 10 10 9 8 8 7 8 9 7 6 6 5 5 5 7 7 6 6 7 12 6 4 8 11 10 8 9 7 7 5 4 5 5 5 3 5 3 4 2 2 3 3 4 2 5 5 4 6 5 6 6 8 7 8 8 8 6 9 10 9 6 3 10 13 14 11 12 14 14 15 15 15 15 16
8 9 9 10 10 11 11 11 11 11 11 12 11 11 11 11 10 9 8 8 8 8 7 7 7 5 5 4 4 6 6 8 7 8 9 9 11 11 10 8 8 9 5 5 4 5 3 5 4 5 1 4 3 3 4 3 4 3 5 3 6 8 5 6 7 8 7 6 7 7 2 8 11 11 10 6 3 11 10 11 11 12 13 13 14 14 14 15
8 9 10 10 11 11 11 12 12 12 12 12 12 11 11 11 10 8 8 8 8 8 9 8 6 5 3 4 5 6 4 5 6 8 11 11 12 10 9 7 7 7 5 4 4 5 5 4 2 1 4 2 1 3 3 2 2 3 4 6 7 6 5 7 7 7 6 5 5 5 5 5 7 13 14 12 10 7 7 8 8 9 11 12 13 14 14 16
9 9 10 11 11 12 12 12 12 12 12 11 11 11 10 9 8 8 8 8 8 8 9 9 7 4 4 4 6 6 5 3 7 12 11 11 10 10 8 7 7 6 5 6 4 4 5 4 6 3 1 2 2 1 4 2 1 3 6 6 6 5 4 4 5 5 5 8 7 5 8 9 11 10 11 13 12 7 6 6 7 7 9 10 11 12 14 15
9 9 10 11 11 12 12 12 11 11 11 11 10 10 9 8 8 8 8 7 7 7 8 9 7 5 1 4 2 3 9 6 8 14 14 11 11 11 6 8 7 6 6 5 3 3 6 3 2 2 1 4 5 3 3 0 0 5 4 3 4 2 3 3 4 2 5 7 6 4 6 7 7 10 8 11 9 7 5 5 5 6 7 9 11 12 13 14
9 9 10 10 11 12 12 11 11 10 10 10 9 9 9 8 8 8 7 7 7 7 7 8 8 5 3 3 4 6 10 10 14 14 14 11 9 8 2 6 5 6 7 8 9 7 5 10 6 4 2 4 4 3 2 3 1 1 2 3 2 1 2 2 3 3 5 6 7 9 10 9 9 10 8 10 7 6 6 5 5 6 7 9 11 12 13 13
8 9 10 11 11 12 11 11 10 10 10 10 10 9 9 8 8 7 6 6 7 8 6 6 7 6 4 4 7 5 10 10 11 14 15 12 8 7 5 3 6 5 8 9 9 8 4 7 4 4 3 3 3 1 1 3 4 3 3 1 2 3 3 2 4 5 5 3 6 9 10 10 12 11 11 7 6 5 5 5 5 5 8 8 10 11 12 13
9 10 10 11 11 11 10 10 10 10 10 10 9 9 8 7 7 6 5 5 6 7 8 8 7 1 4 7 5 6 8 9 11 11 13 10 9 5 6 7 8 7 8 8 8 9 9 7 6 2 1 5 2 3 3 4 4 1 2 2 4 4 2 3 3 6 5 5 3 5 8 5 2 8 4 6 5 3 4 5 5 5 6 8 9 9 11 12
9 9 10 10 11 11 11 11 11 10 10 9 9 8 7 6 7 6 4 4 5 5 7 11 13 9 9 13 11 9 5 7 9 9 10 9 8 9 7 8 9 6 4 8 10 8 6 6 6 2 2 3 4 5 3 3 2 3 2 3 5 4 3 3 3 4 6 4 1 4 7 5 4 8 4 4 4 2 3 4 5 5 6 7 8 9 10 11
9 9 10 11 11 11 12 11 11 10 10 10 9 9 8 7 6 6 5 3 4 4 6 8 9 4 6 13 13 6 8 6 8 9 7 7 5 4 5 5 7 7 5 7 9 8 6 6 6 1 2 3 3 2 4 0 2 3 4 6 8 7 5 3 5 2 3 5 4 5 5 6 6 4 4 3 1 1 3 4 4 5 6 6 6 7 9 10
9 10 11 11 12 11 11 11 10 10 10 10 10 9 8 6 5 5 4 3 2 4 5 6 8 1 3 10 7 3 4 6 8 10 9 6 1 2 3 4 6 7 8 6 6 5 6 7 8 6 4 4 3 2 2 2 1 2 6 6 5 7 5 4 3 6 6 4 3 5 5 4 6 6 4 3 2 1 3 4 5 4 5 6 6 6 8 9
10 11 11 11 11 11 11 10 10 11 11 10 9 7 6 4 4 4 3 2 2 3 4 6 6 3 8 7 4 2 2 4 8 12 14 12 4 4 4 5 3 4 5 6 4 3 5 5 5 5 3 5 2 1 2 4 4 3 2 4 3 6 2 4 4 5 5 5 3 4 7 2 6 6 4 3 1 0 3 3 4 5 5 5 6 7 8 9
10 11 12 12 12 12 11 10 11 10 9 8 6 4 3 3 3 2 3 6 2 4 5 4 3 4 4 4 4 3 3 6 12 13 9 11 11 1 6 2 5 6 6 5 2 1 3 5 3 2 5 3 3 2 4 3 3 6 3 1 6 6 6 5 3 5 7 6 4 7 7 3 6 6 4 3 1 2 2 3 4 5 5 6 6 7 8 8
10 11 11 12 11 11 11 10 9 9 8 7 6 4 3 1 1 1 0 3 6 6 5 1 5 5 9 8 8 6 5 16 16 11 6 6 9 6 5 3 1 2 1 3 1 1 1 4 6 3 6 3 5 6 4 2 5 6 7 4 6 8 8 7 5 2 5 10 6 2 6 3 5 6 6 3 2 2 2 3 3 4 5 5 6 6 7 8
10 11 11 10 10 10 10 9 9 9 7 7 7 5 1 2 3 2 1 2 2 3 5 5 6 1 6 4 4 10 13 11 10 10 10 5 7 8 5 3 2 3 2 2 3 4 2 4 3 2 8 11 10 11 1 5 6 6 8 5 8 10 10 6 7 5 8 11 11 5 4 4 8 8 6 5 3 3 2 2 2 3 4 5 5 6 7 7
10 10 10 10 10 9 9 9 10 9 8 6 5 4 4 8 2 4 1 4 1 1 2 4 2 3 9 11 10 13 12 9 11 11 10 5 2 8 7 4 3 6 8 5 3 4 4 3 5 7 6 11 13 12 9 6 6 7 8 7 8 11 9 12 10 10 9 9 12 12 9 3 6 8 7 6 4 3 2 2 2 2 3 4 4 6 6 7
9 9 9 9 10 10 9 10 10 8 7 5 4 3 6 7 4 13 11 7 5 4 4 9 10 8 5 12 10 11 11 8 7 10 13 11 6 6 5 3 4 6 1 5 8 7 5 4 6 10 13 12 11 9 4 3 7 8 7 6 9 7 10 10 14 7 9 11 13 11 8 6 7 7 7 7 5 4 4 3 2 2 2 3 4 5 6 6
10 10 10 10 10 10 11 10 9 7 5 3 2 2 3 3 4 6 9 15 14 11 7 4 3 4 4 10 12 13 10 2 5 16 16 10 9 7 3 5 2 5 3 3 5 9 5 12 10 7 5 8 7 6 6 5 5 7 7 7 9 11 10 12 16 4 6 8 11 13 13 8 6 8 8 7 6 5 4 3 2 2 2 3 4 5 6 7
10 10 10 10 10 10 10 9 8 6 3 3 4 3 1 2 3 8 6 9 4 5 8 7 6 6 7 5 8 13 9 2 7 14 16 15 4 5 7 7 4 3 5 2 2 3 5 12 8 6 7 6 5 5 6 6 5 5 6 5 8 11 11 16 17 2 2 5 10 15 10 9 8 9 9 9 9 7 5 3 1 2 3 2 4 5 6 7
10 10 10 9 9 9 9 8 9 7 6 2 6 5 3 4 3 3 1 7 3 2 1 4 2 7 1 2 4 4 5 4 12 20 16 17 10 5 7 4 7 7 4 3 5 4 11 10 6 7 6 5 4 6 7 7 7 4 3 7 7 10 15 14 3 2 5 6 12 14 10 11 8 12 10 10 8 6 3 1 2 1 3 3 5 5 6 8
10 9 9 9 10 10 10 9 8 10 2 3 4 5 4 2 4 1 3 9 7 2 3 6 11 12 10 2 5 11 9 16 11 17 18 16 6 8 7 5 7 6 9 12 6 3 5 8 8 6 5 7 4 6 13 13 5 3 5 6 8 12 13 12 10 3 8 9 13 13 13 12 8 9 9 8 8 6 4 4 3 2 2 5 5 6 7 10
9 8 8 7 8 10 9 8 9 4 7 7 6 5 3 3 4 4 3 3 4 3 3 2 4 10 9 8 8 8 11 10 10 18 16 12 10 5 3 8 5 6 8 8 11 9 8 4 5 5 5 6 7 6 13 9 6 1 4 7 8 15 16 12 15 17 16 16 6 9 10 12 9 10 10 10 7 7 6 5 2 2 3 3 5 6 7 10
8 8 8 8 9 8 7 7 2 3 2 3 5 3 3 3 3 4 2 2 1 6 4 3 3 6 7 5 6 4 3 4 12 9 9 11 12 4 4 2 3 6 4 4 3 8 6 3 3 6 5 4 8 6 9 9 6 4 6 10 14 18 19 19 17 14 11 6 6 5 8 8 5 15 12 10 8 9 6 4 2 2 4 5 7 8 10 11
9 9 9 9 9 8 4 1 3 0 2 4 3 2 2 1 2 3 2 2 3 7 4 9 4 8 3 9 11 3 4 5 6 9 10 9 2 2 4 3 5 5 6 5 6 4 3 1 3 7 7 10 8 6 5 8 7 6 4 13 16 18 18 18 17 10 8 9 2 8 8 11 9 8 11 11 10 10 7 4 1 3 5 7 8 10 11 13
9 9 9 10 9 6 2 2 2 2 1 3 2 1 1 1 1 2 3 3 2 5 7 6 6 5 4 8 14 3 2 6 9 8 13 12 8 0 5 6 1 3 2 3 2 3 4 5 7 7 11 9 9 8 8 8 6 4 9 15 17 18 18 17 12 10 11 8 15 9 7 10 13 7 9 11 11 10 8 4 1 2 6 8 10 11 13 15
9 8 8 8 10 7 3 5 2 0 3 2 1 0 1 0 2 2 2 1 3 6 5 5 4 4 6 8 10 10 3 9 4 11 11 10 5 3 4 4 6 6 3 1 1 2 5 3 7 10 10 10 10 10 8 5 5 8 12 15 19 19 19 17 10 10 10 10 7 4 5 10 10 9 9 11 9 11 9 3 0 4 7 11 13 13 15 19
6 5 5 5 6 6 4 1 2 1 2 1 2 1 0 2 3 3 3 1 2 2 4 2 2 2 12 9 9 10 4 7 6 8 12 3 9 3 4 6 3 4 4 4 2 1 2 3 4 4 8 8 10 11 3 6 6 7 16 17 15 17 16 13 9 9 9 7 7 11 14 12 13 14 13 8 6 9 6 2 2 6 10 12 12 15 19 20
9 8 5 5 4 1 2 1 4 2 0 1 2 1 2 3 3 2 1 2 4 2 3 4 5 8 10 9 5 10 9 6 1 9 6 6 11 5 3 4 2 3 1 6 8 3 2 1 3 2 6 7 9 11 4 6 6 13 15 16 15 14 6 5 7 7 8 8 8 15 18 15 15 14 14 8 1 4 4 2 5 9 12 13 14 16 18 18
16 14 10 3 2 2 3 2 3 0 1 1 1 3 3 3 2 1 2 1 2 3 2 4 5 5 10 11 6 11 4 5 9 10 7 7 8 12 8 3 5 4 2 2 3 6 3 5 3 3 2 5 7 12 5 4 8 9 11 14 15 6 8 5 4 4 7 11 13 20 20 19 16 12 5 7 6 5 4 4 9 9 12 16 16 18 19 19
11 15 13 8 1 3 2 1 2 0 1 2 2 3 3 1 3 4 1 2 4 4 5 5 3 5 8 1 2 9 6 4 8 8 9 9 11 14 13 7 7 6 3 7 6 5 4 3 3 4 3 7 9 11 3 5 5 9 12 12 12 10 7 4 8 9 9 13 17 19 23 16 8 14 4 6 7 6 5 7 7 13 17 18 17 20 18 17
3 4 9 8 2 4 3 2 0 1 2 2 3 2 2 0 3 1 1 4 1 5 2 2 5 8 6 6 8 8 1 6 6 3 3 5 4 6 8 10 8 4 5 5 6 7 2 5 3 4 2 6 5 9 9 7 10 8 11 10 11 12 10 10 9 7 11 16 19 18 20 15 13 8 6 2 6 6 3 3 10 16 19 20 21 19 19 22
7 4 2 2 6 4 2 1 1 1 2 2 3 2 1 3 1 3 1 2 3 1 3 3 7 5 4 5 4 7 2 3 6 6 6 4 7 7 6 10 13 10 2 6 6 4 9 2 3 6 3 5 6 3 5 7 10 6 6 7 8 5 6 10 8 13 15 17 21 21 12 4 12 7 2 7 7 2 3 9 13 17 20 23 23 23 25 24
5 3 4 3 2 4 3 2 1 1 2 2 2 1 4 2 0 1 1 2 2 4 3 2 4 4 2 3 1 2 3 1 4 3 7 6 6 6 7 7 11 10 4 5 4 2 11 8 4 2 1 4 7 1 2 8 7 1 7 4 7 6 7 8 9 12 15 18 17 9 7 9 12 5 5 5 2 1 8 15 20 23 25 22 19 22 25 27
5 2 1 4 4 3 2 1 1 1 2 3 2 6 4 1 1 1 1 1 1 4 7 4 3 3 6 4 4 6 3 2 4 3 5 6 6 6 4 4 7 8 5 4 3 4 6 5 4 3 2 4 5 2 2 5 7 10 7 6 9 11 10 9 11 12 17 13 13 10 14 11 12 6 5 2 2 9 15 21 24 23 20 24 23 27 31 29
2 3 3 4 6 5 1 3 2 2 3 3 4 4 2 1 3 2 3 3 2 5 4 2 4 5 4 4 5 7 4 3 2 5 3 3 3 7 8 4 1 6 5 4 2 2 5 11 16 7 4 5 3 3 2 1 1 7 5 7 14 9 7 3 11 12 11 14 15 10 16 17 14 12 4 6 15 16 22 24 24 24 27 27 27 30 29 30
3 1 1 5 7 4 1 3 2 4 1 9 7 6 1 0 1 3 1 1 1 3 3 5 1 3 2 3 4 5 11 3 9 6 2 7 3 4 5 6 2 5 5 3 3 2 3 7 2 4 4 2 5 3 4 4 3 5 4 1 6 6 6 8 7 12 15 15 14 12 18 14 13 15 12 16 19 21 24 24 26 31 27 28 31 33 31 29
1 2 3 5 7 4 2 2 4 3 4 10 2 4 2 3 2 3 4 4 2 3 2 3 2 2 2 2 4 1 4 3 5 5 5 6 4 7 6 4 3 10 5 4 4 5 5 4 4 5 5 12 6 4 8 7 5 6 6 2 5 4 5 8 6 9 10 19 19 18 16 17 9 14 9 17 19 24 29 31 29 27 27 28 29 29 29 29
1 1 4 2 7 6 3 3 1 8 8 7 2 2 1 3 3 3 4 4 3 3 3 1 1 2 1 1 2 3 3 4 5 4 5 4 5 5 8 7 5 11 8 5 4 4 5 3 7 9 15 9 5 6 8 7 8 8 6 6 4 4 4 7 7 5 9 16 16 18 19 12 12 11 6 18 23 28 30 29 27 24 27 32 31 31 30 30
1 0 1 4 9 6 4 4 11 8 5 3 7 5 2 3 3 2 2 3 2 1 2 3 4 2 3 3 1 2 4 3 3 2 5 4 8 2 7 6 6 9 10 6 3 3 4 4 8 12 11 9 7 5 2 4 4 6 5 5 4 6 7 11 12 5 8 10 14 18 20 19 8 1 11 21 26 30 33 30 24 27 33 33 32 30 31 28
2 2 3 9 9 6 2 8 4 3 3 3 2 3 3 3 1 3 1 2 2 1 2 2 1 3 3 3 3 3 5 3 3 2 5 4 6 6 5 5 5 4 4 3 4 3 2 5 7 9 10 12 5 4 3 4 4 4 1 2 2 3 4 5 13 12 12 11 18 19 19 19 6 11 18 25 29 32 29 25 28 31 34 32 31 32 29 28
4 3 1 6 7 3 7 8 4 4 4 3 2 3 2 2 3 1 1 1 1 0 2 1 4 3 3 2 3 2 5 1 5 2 4 5 4 5 4 6 6 5 5 4 6 3 2 2 9 10 9 3 5 5 5 1 4 4 2 3 3 3 3 6 8 13 15 16 12 13 15 17 13 15 22 28 29 28 23 25 29 29 26 31 33 31 31 30
2 3 3 6 6 2 1 4 3 3 3 3 3 5 3 3 2 1 1 2 3 0 2 3 2 2 2 2 3 3 7 2 3 5 2 4 2 1 4 6 7 5 6 3 3 8 4 6 8 11 9 11 6 2 2 4 4 9 9 6 5 3 1 6 11 9 11 12 16 16 21 19 16 21 25 27 32 29 27 28 29 31 31 30 29 31 30 31
2 2 1 6 11 7 4 3 4 4 3 3 4 3 2 2 3 3 3 3 1 2 3 2 2 3 1 1 2 2 2 3 2 4 0 1 2 1 1 5 6 4 4 0 3 6 3 5 7 9 10 12 13 13 14 15 13 12 10 13 8 5 5 8 12 13 14 13 19 14 21 25 28 31 31 31 28 26 26 31 35 33 32 32 31 31 31 29
1 3 3 6 8 7 5 2 4 6 5 3 3 1 1 3 1 1 3 2 2 1 2 2 1 1 2 2 2 1 3 2 2 1 2 1 2 1 2 3 3 5 4 4 5 3 2 2 5 5 5 8 10 12 15 16 14 12 15 13 13 3 2 6 10 12 14 20 18 18 19 30 35 31 31 28 24 27 33 35 33 32 33 33 31 31 30 29
1 2 1 2 1 8 5 5 3 1 2 3 1 1 3 4 2 2 2 0 2 2 1 3 3 2 4 5 4 2 5 1 3 1 1 2 2 2 2 2 3 2 4 4 5 2 3 2 6 8 7 11 15 18 18 16 16 17 16 14 12 8 3 3 8 13 17 19 22 16 27 30 33 34 30 25 25 30 30 30 33 34 32 29 32 32 33 32
2 1 1 2 1 1 0 3 4 4 4 2 2 0 2 2 1 0 1 1 0 1 2 4 3 4 2 3 4 2 8 6 3 1 2 1 1 4 2 0 5 4 5 2 4 4 3 1 3 4 10 10 15 18 15 13 14 15 14 13 10 9 11 11 12 13 15 15 22 34 36 33 32 30 26 26 30 34 34 36 34 33 33 32 32 33 34 32
3 4 2 3 0 3 3 2 4 5 7 4 3 2 2 3 4 2 2 0 2 1 1 1 4 3 1 2 4 1 4 3 1 2 2 2 1 2 1 3 3 6 8 4 5 1 3 1 4 4 12 15 14 10 16 16 14 13 9 6 6 10 10 12 15 15 16 19 25 28 33 36 29 24 24 28 32 33 31 29 31 32 33 33 36 36 34 31
3 3 2 3 7 5 3 2 1 2 3 2 1 4 2 2 3 2 1 2 0 2 1 2 2 1 1 1 2 1 2 5 5 4 2 1 2 1 2 2 3 4 6 4 4 4 4 6 4 5 8 10 9 14 13 14 13 12 4 1 8 11 13 12 16 20 21 19 22 29 32 26 19 22 28 30 29 29 30 34 32 32 34 37 38 35 33 31
2 3 3 7 3 2 0 1 1 1 2 3 3 1 1 2 2 2 2 2 2 3 4 3 2 2 1 2 2 1 3 5 6 3 5 2 3 3 3 2 4 3 3 4 3 4 5 6 3 1 8 8 13 19 22 17 8 7 5 7 9 14 15 15 13 17 17 25 30 28 22 20 20 27 32 31 31 32 34 32 32 31 37 38 37 36 33 31
1 1 1 0 3 2 2 0 1 2 3 3 3 2 1 2 1 2 1 2 0 2 2 3 2 5 3 2 2 4 5 5 3 3 2 4 7 7 8 7 5 3 2 3 3 5 5 6 6 7 7 7 14 17 21 20 6 2 2 6 12 15 17 20 17 18 21 24 22 23 22 19 29 32 33 32 32 32 29 30 31 34 32 33 32 30 30 30
Wind_Direction
343 345 344 340 337 334 332 332 331 330 330 332 331 330 332 333 333 338 337 328 321 336 359 3 0 356 349 347 341 319 322 278 61 48 49 48 354 309 306 307 309 304 304 296 300 309 280 241 252 15 257 244 125 247 99 226 297 257 246 254 268 324 0 12 356 343 339 304 335 331 349 340 357 2 13 300 74 40 53 44 35 43 39 32 24 16 13 14
346 345 341 339 336 334 331 332 332 333 332 329 329 328 333 336 337 339 335 333 335 353 3 2 349 337 344 336 325 321 319 309 58 52 53 2 325 321 317 313 309 307 304 294 345 335 312 300 295 276 255 235 111 250 198 138 238 253 260 259 281 26 47 11 7 10 333 331 322 323 14 15 29 343 360 316 48 40 35 38 25 30 30 23 22 17 19 19
342 342 340 339 335 334 333 333 335 333 333 329 329 333 335 337 341 344 345 339 354 357 355 342 330 330 329 330 309 300 301 248 43 30 47 28 338 326 327 316 314 315 304 309 327 314 317 322 311 276 241 252 152 188 222 95 264 188 286 276 59 15 36 41 20 358 346 329 327 343 23 61 31 16 342 21 64 45 37 15 18 23 17 17 16 17 18 22
339 342 340 338 336 333 334 334 335 335 333 333 333 335 337 342 347 350 344 353 351 348 336 328 331 328 321 301 302 294 252 269 40 349 28 11 349 331 325 307 303 293 284 267 308 293 295 269 276 276 220 247 106 202 213 95 263 91 249 331 17 19 316 43 20 13 358 353 339 339 357 80 50 38 31 5 90 48 43 31 21 19 15 12 15 16 17 20
340 342 341 339 338 336 336 337 338 337 334 334 334 337 339 342 344 336 350 355 349 336 328 322 320 319 298 245 243 246 245 247 42 337 18 1 342 324 317 304 297 306 295 303 263 246 267 277 276 251 256 118 129 175 64 104 4 278 30 37 22 10 328 45 22 36 357 330 324 19 48 68 84 48 44 49 66 48 24 23 22 22 19 18 16 19 20 22
342 342 341 341 339 336 337 336 335 333 333 332 334 334 334 337 338 345 354 349 337 328 319 317 316 332 307 252 236 188 227 22 342 357 359 347 326 312 308 286 292 285 287 267 285 279 264 220 232 202 212 175 50 317 80 30 337 252 97 70 37 12 324 24 28 44 354 23 45 77 88 83 83 78 60 59 63 59 37 32 27 30 25 25 29 27 27 28
344 343 342 341 338 336 335 332 332 331 333 332 333 333 334 341 345 351 350 340 328 317 313 308 311 305 1 257 228 247 65 86 353 345 352 331 313 294 301 271 254 270 269 298 354 321 7 345 296 61 131 104 67 39 49 24 297 315 79 34 40 323 3 10 54 70 45 44 62 91 145 101 107 83 65 69 64 59 49 39 35 40 40 39 39 35 34 32
343 343 343 342 336 333 331 330 329 329 328 331 331 333 340 345 355 353 340 323 312 300 295 296 295 289 236 210 247 96 42 12 346 342 340 336 315 312 298 264 297 289 6 20 356 21 346 26 14 324 301 11 43 339 60 211 318 167 95 15 68 237 16 23 110 112 80 78 94 111 104 97 90 91 85 66 58 45 48 48 50 51 54 49 43 37 35 33
343 346 344 339 335 329 327 324 325 331 331 334 336 334 343 353 355 343 329 311 299 289 282 288 292 284 201 271 256 7 27 347 346 340 351 348 343 312 281 330 339 331 32 28 17 19 347 29 334 360 44 114 13 134 141 262 132 30 73 243 125 75 56 35 156 123 98 100 126 118 117 123 116 107 71 58 46 43 50 55 50 57 55 48 42 38 33 31
347 348 343 335 329 323 321 325 330 335 334 330 327 336 343 348 343 335 315 302 300 304 308 326 326 182 233 233 246 64 25 321 353 349 358 348 348 311 22 3 352 17 37 32 34 24 36 28 353 333 4 99 257 67 277 292 61 138 156 204 140 92 118 78 89 123 113 80 178 137 131 121 48 248 116 63 43 30 58 60 56 50 49 46 44 40 34 32
346 343 338 332 324 326 329 332 333 329 328 327 328 334 337 333 325 319 316 323 323 329 328 333 337 323 51 37 60 55 349 313 358 353 347 356 11 19 11 352 343 13 32 50 42 13 6 12 18 20 251 67 156 86 18 41 1 163 181 171 183 165 77 127 119 120 172 105 160 136 124 107 66 53 58 42 27 39 47 58 55 49 43 39 46 42 38 33
343 342 335 332 330 328 330 330 327 323 321 326 331 330 332 322 319 313 314 324 341 339 335 323 326 304 55 52 53 30 338 338 340 353 351 359 19 10 347 336 1 6 12 55 49 29 4 357 306 32 61 259 139 166 80 257 212 165 177 193 201 197 230 76 62 52 284 117 180 193 167 141 83 83 78 53 18 76 59 61 57 49 43 45 39 44 40 33
347 342 336 332 330 327 326 326 324 321 323 328 330 325 325 321 305 294 308 272 24 311 304 319 308 256 314 53 46 18 344 353 353 1 4 0 195 355 18 13 26 27 24 59 57 16 3 348 6 67 25 304 127 335 63 229 278 277 213 262 187 193 222 84 103 14 227 106 44 182 286 140 101 95 84 61 34 134 88 71 57 49 52 45 42 43 41 39
345 338 334 330 328 326 327 325 321 321 324 327 327 329 323 312 284 272 275 284 300 274 288 321 305 297 69 78 112 77 281 333 356 14 9 347 352 84 61 42 57 56 49 70 62 7 351 8 38 82 33 356 45 35 223 173 189 250 37 294 9 322 74 114 37 355 357 111 202 288 271 145 123 113 95 69 69 216 102 73 56 50 51 48 47 38 43 43
341 335 332 329 329 328 327 327 329 328 326 321 332 352 17 15 29 234 284 238 276 279 277 287 251 271 40 106 191 137 228 245 16 14 9 353 353 184 37 68 65 56 54 45 66 345 320 288 275 36 52 34 111 193 234 203 146 19 230 10 14 356 334 12 98 70 354 341 315 311 275 73 142 130 108 106 152 201 107 73 55 56 46 45 36 36 37 35
336 332 328 330 327 321 319 323 328 334 333 336 344 29 44 62 95 124 349 339 299 289 234 303 358 356 72 51 13 171 358 14 4 1 13 354 357 6 334 347 3 84 64 63 239 268 354 326 44 335 19 168 332 324 259 69 8 41 15 353 351 341 335 317 146 37 6 336 324 340 312 202 149 137 123 123 169 190 143 74 64 57 47 36 31 32 24 23
332 330 328 326 320 317 319 324 337 336 328 321 305 255 167 175 199 165 197 289 270 283 24 24 326 1 52 6 267 357 358 360 350 354 359 30 350 353 301 261 274 292 233 235 212 219 266 259 161 203 47 36 14 4 7 20 353 357 5 351 350 339 327 325 356 129 352 347 319 311 280 353 103 144 142 142 160 183 151 107 89 61 53 33 33 26 21 18
330 325 326 320 321 323 328 328 331 327 322 302 279 298 357 4 180 214 249 225 207 242 174 355 39 245 109 27 4 341 334 335 351 323 359 11 334 345 0 342 297 274 277 227 26 341 339 24 1 52 34 34 28 28 39 8 342 325 340 340 338 326 325 326 335 357 355 340 314 308 279 196 152 152 163 153 162 166 139 126 74 72 34 36 37 21 19 16
328 325 324 329 328 329 334 330 332 328 323 308 270 306 276 291 34 55 33 17 55 44 42 9 4 62 14 340 348 343 329 329 284 353 9 4 328 302 278 260 266 286 286 51 28 24 5 63 40 35 24 15 21 26 26 313 315 309 312 305 303 320 326 326 327 1 16 330 315 308 295 299 167 177 166 167 170 169 149 143 116 48 40 49 21 25 15 10
330 332 334 334 333 334 333 327 329 327 329 250 251 248 222 166 86 49 19 49 57 64 79 354 14 109 46 9 358 337 294 253 343 21 7 358 316 311 299 349 344 53 18 68 41 38 358 55 38 29 3 4 13 359 345 320 322 295 271 280 313 312 313 325 318 28 7 335 299 312 300 282 224 188 172 170 181 177 167 145 99 44 58 22 20 15 7 2
335 337 337 334 333 320 320 328 334 324 298 277 278 277 38 21 58 80 62 74 70 30 55 51 44 36 23 308 345 351 1 318 28 22 14 326 256 274 14 317 217 83 51 312 29 67 37 60 40 17 355 349 339 327 318 318 259 281 306 326 327 328 323 319 305 77 23 10 293 299 293 264 233 187 179 178 189 190 169 159 124 82 42 21 15 5 359 356
335 336 330 324 311 322 329 341 348 339 277 3 51 78 75 44 349 27 313 85 66 356 341 27 325 37 129 254 345 353 250 317 7 13 7 352 21 346 353 10 47 55 8 208 214 84 47 53 34 8 340 315 290 300 321 283 297 256 308 346 324 331 318 301 295 31 303 282 282 298 295 282 242 190 179 189 195 171 159 154 109 62 16 18 359 358 346 347
333 323 323 319 331 338 342 330 351 355 358 31 59 81 70 30 342 345 281 119 81 262 38 32 35 22 17 67 19 323 34 30 350 6 3 346 24 45 342 38 49 46 44 25 36 57 68 51 24 349 324 305 284 355 359 343 222 295 0 348 340 325 334 324 311 219 280 288 288 297 295 277 266 168 188 190 186 171 168 167 137 23 26 359 358 349 344 345
320 313 308 311 326 336 320 321 285 337 41 45 60 47 41 352 328 305 268 58 102 79 54 49 16 29 20 359 3 331 39 34 13 356 2 360 10 298 327 9 27 55 50 20 64 69 69 42 337 304 284 296 348 17 9 350 338 83 47 352 323 325 316 297 298 308 300 272 272 272 273 273 178 186 197 188 179 181 175 175 173 114 7 17 344 348 343 338
312 311 310 314 330 313 303 308 24 48 291 42 65 67 40 0 301 15 284 171 59 50 154 165 219 51 350 218 313 311 55 73 33 12 350 8 347 310 50 231 285 61 13 339 228 96 82 40 319 283 283 316 354 358 16 340 326 354 113 358 322 309 313 305 302 313 307 305 175 237 305 296 176 193 196 165 181 199 177 213 156 350 12 358 350 344 336 335
314 314 311 327 328 325 300 326 79 74 306 56 44 76 46 317 0 333 282 255 74 354 318 25 291 28 303 352 346 33 288 70 18 9 6 10 261 355 249 50 6 21 5 2 41 58 43 34 258 311 336 9 9 11 37 337 330 308 8 345 316 307 300 295 302 308 306 318 3 158 277 290 309 265 197 169 191 188 176 169 296 14 4 358 348 341 342 336
311 312 318 322 332 322 286 86 44 133 257 107 70 342 325 279 22 255 262 213 62 9 355 351 321 49 330 357 340 250 315 18 323 24 9 20 5 140 352 28 196 95 101 355 242 82 329 26 357 15 14 11 9 354 3 352 317 327 2 321 306 304 304 296 302 286 270 278 289 226 244 286 300 331 156 172 189 185 187 207 307 25 356 351 344 348 342 334
308 304 308 326 333 356 30 120 167 237 30 54 341 194 291 290 226 272 261 338 14 325 0 349 30 327 357 323 23 50 78 291 313 11 1 341 317 274 50 19 41 4 24 248 315 64 7 10 17 15 6 16 2 344 334 336 299 319 321 310 301 295 292 288 281 270 280 304 301 108 307 283 291 312 157 163 204 193 198 197 4 13 347 355 356 345 339 337
354 334 311 320 338 342 343 43 310 112 50 309 270 235 179 229 248 268 266 83 36 1 170 68 159 355 350 321 47 30 35 16 16 331 328 312 45 268 32 24 350 349 351 335 61 86 90 356 353 321 16 5 333 328 346 295 301 329 310 290 281 274 258 266 270 266 288 289 285 336 349 311 305 310 299 162 223 229 172 187 59 359 359 358 351 343 342 338
19 18 6 354 297 258 53 84 57 52 221 242 239 237 238 227 220 232 233 19 355 20 26 319 353 325 339 346 72 28 23 15 6 314 344 6 359 39 112 5 237 282 167 74 79 48 111 72 290 338 29 343 311 316 280 261 282 301 301 316 311 300 277 235 252 264 290 294 305 335 335 329 305 302 305 291 321 61 59 32 8 2 2 355 348 343 330 333
35 29 22 305 352 19 323 197 89 38 337 252 247 249 230 226 299 268 58 28 308 7 262 39 8 326 11 27 354 1 14 22 360 347 20 7 20 28 26 160 271 236 228 43 103 144 172 191 212 114 312 321 312 301 238 245 264 298 338 331 325 325 321 233 266 301 313 303 321 333 324 330 294 298 328 98 107 90 69 22 1 354 341 336 344 341 340 339
33 43 36 51 258 282 317 49 48 284 285 276 240 235 244 227 52 48 98 77 264 21 14 348 44 5 346 40 307 354 344 346 24 18 20 18 32 26 22 26 349 349 21 17 337 327 197 137 97 133 219 347 343 319 41 218 274 344 340 345 347 338 346 338 346 337 334 308 312 321 324 319 284 304 38 121 134 113 59 17 360 343 344 339 338 341 341 336
342 71 53 49 17 46 65 31 291 277 246 247 244 242 266 207 61 17 261 349 73 350 54 205 312 333 316 282 25 342 217 18 337 64 274 26 42 96 72 45 353 325 317 349 328 350 26 126 101 147 134 20 329 341 350 345 345 347 358 353 358 348 352 324 322 311 301 294 302 315 315 280 291 300 75 45 101 95 94 352 2 348 343 342 340 340 342 341
17 283 79 45 72 70 60 64 334 286 258 206 261 205 38 62 81 100 299 338 353 44 303 349 320 298 297 28 359 348 329 126 10 9 353 41 40 40 36 37 22 353 310 317 351 339 336 333 105 350 354 7 11 17 355 310 327 343 355 0 358 323 335 310 317 325 307 301 308 309 294 313 321 359 64 88 95 129 82 360 359 349 340 344 339 339 343 337
342 335 135 165 159 83 83 130 180 261 270 240 220 262 79 85 239 303 57 14 47 324 342 110 303 302 176 159 91 87 13 331 42 355 35 25 34 40 3 7 5 4 316 291 65 276 340 285 49 55 34 349 10 66 285 319 299 17 348 313 349 343 325 280 303 301 307 306 305 312 295 308 319 53 69 106 69 155 8 352 348 353 345 339 336 340 335 330
282 155 230 53 19 25 100 147 109 220 281 261 112 48 55 25 94 38 31 283 320 341 323 292 272 302 8 21 161 16 155 321 357 306 98 65 53 41 5 14 6 2 351 337 12 334 322 343 14 98 127 7 21 216 306 302 344 327 311 358 332 314 283 282 286 296 296 291 278 303 298 298 315 273 106 153 233 339 350 350 341 337 342 339 337 333 329 330
310 295 34 2 20 352 149 161 186 211 236 265 78 81 35 69 13 3 33 358 1 322 274 327 35 354 0 340 2 7 354 303 336 324 62 172 132 37 13 31 67 354 13 330 316 111 319 291 292 288 317 84 28 105 73 59 161 315 340 7 313 247 195 256 319 311 306 301 289 304 304 308 324 320 91 325 331 338 344 338 339 341 342 335 332 332 330 328
313 18 206 37 333 324 172 183 213 249 283 76 58 89 289 76 71 27 46 287 246 225 329 13 103 303 0 329 6 354 334 314 2 331 11 24 40 327 22 352 65 12 344 339 297 54 331 301 2 114 320 116 159 203 184 183 286 1 357 290 355 6 326 330 316 314 320 305 304 306 305 297 314 309 346 334 329 338 336 338 343 340 335 330 329 327 327 325
282 259 38 349 342 331 208 184 227 268 91 73 108 109 42 59 44 43 19 351 308 295 340 54 347 81 323 355 334 269 9 5 337 16 324 29 321 44 56 326 350 359 347 333 278 346 290 266 310 165 302 322 279 267 347 347 117 142 199 9 84 314 320 324 326 295 294 294 313 303 315 303 331 328 350 324 341 335 335 339 339 336 333 331 328 325 326 328
285 244 45 359 346 353 311 259 16 51 56 80 80 61 31 96 77 61 36 347 44 329 47 351 114 333 337 29 345 351 354 313 341 4 349 32 353 69 39 10 348 319 336 294 290 343 312 261 281 320 318 306 329 10 342 341 337 340 330 337 3 339 288 274 281 277 291 305 298 305 309 294 328 323 331 333 337 339 339 336 336 335 333 329 326 325 326 325
233 347 81 8 8 344 300 347 49 32 66 69 55 89 33 68 126 75 64 2 325 97 334 351 344 356 355 317 107 44 327 323 333 4 11 43 20 342 63 20 340 327 319 266 234 18 321 301 308 313 329 346 348 82 7 333 351 319 329 326 16 335 349 339 316 291 313 307 298 308 298 293 345 3 329 340 340 334 333 334 334 333 328 326 328 327 324 322
290 80 8 357 354 335 293 54 41 351 61 69 66 0 95 329 102 88 108 106 283 348 114 299 116 320 351 335 350 331 336 326 351 338 57 2 52 18 29 355 340 316 324 3 341 38 344 284 289 311 328 314 352 126 48 26 305 315 226 5 143 0 352 325 314 305 304 291 295 289 293 281 347 339 348 337 328 330 333 339 330 327 325 325 324 324 325 323
24 64 106 322 346 325 54 73 69 56 66 76 208 92 31 64 55 87 314 155 258 0 259 294 7 300 97 342 342 330 3 344 3 25 30 25 77 25 355 340 326 305 253 350 319 126 237 288 325 319 318 327 100 54 112 140 245 230 189 127 35 26 5 302 285 299 294 295 295 299 276 281 329 346 331 328 328 331 338 334 327 323 322 325 326 326 325 326
100 48 30 22 6 172 21 94 100 85 97 96 76 82 10 42 25 138 71 63 337 310 334 15 173 61 335 4 300 338 1 320 87 4 102 14 75 39 26 351 341 21 1 36 312 7 330 29 339 333 337 338 349 149 178 178 244 335 323 358 79 53 163 268 262 266 284 292 303 307 294 297 320 330 328 327 329 331 332 332 330 327 326 326 325 324 323 321
116 191 57 14 18 26 76 358 117 122 132 125 118 101 123 111 36 22 350 54 344 350 289 58 13 325 301 17 306 272 10 9 292 86 237 46 84 164 106 360 332 40 36 259 255 304 290 347 11 4 347 335 335 337 335 328 328 312 307 320 331 108 359 341 319 316 293 307 310 296 291 296 309 323 326 329 335 336 333 328 327 326 326 325 326 323 320 321
338 88 343 26 10 54 81 355 49 115 130 138 100 53 3 109 131 62 313 87 1 328 2 302 175 262 275 274 275 334 12 49 318 76 358 42 112 124 16 314 360 21 11 282 254 300 298 324 51 24 317 293 289 291 290 302 306 303 302 309 319 80 70 314 298 300 309 312 302 290 292 306 313 323 329 331 337 336 331 329 327 325 323 325 322 322 322 320
55 68 356 106 158 54 74 29 63 75 117 285 73 115 67 59 106 117 348 222 96 324 279 17 351 316 9 334 346 310 1 332 120 117 60 298 50 68 168 295 277 47 323 322 354 261 293 247 49 351 286 268 281 279 285 301 298 300 309 308 316 328 126 249 299 307 314 312 298 300 312 314 317 324 330 338 338 332 331 329 327 325 323 321 323 321 320 320
76 125 22 345 309 97 123 64 18 77 50 18 97 123 70 105 91 64 171 118 199 187 275 167 49 57 352 1 317 337 338 328 171 242 123 223 293 150 162 104 39 324 286 37 9 16 340 300 71 300 279 282 275 279 296 303 293 294 298 302 307 326 329 316 297 305 314 305 301 309 317 316 318 323 331 336 333 331 331 327 325 320 318 318 321 322 322 322
46 107 75 310 239 45 16 24 352 71 71 49 108 49 94 77 75 24 339 290 216 145 302 0 33 29 28 300 312 7 345 340 344 93 107 54 6 276 184 184 141 31 14 13 9 122 275 86 342 312 296 299 294 309 318 315 304 295 292 305 319 322 322 320 311 312 307 299 301 307 312 311 315 326 336 330 328 327 324 322 321 322 320 319 321 321 321 322
168 170 132 43 85 82 31 333 338 275 71 290 87 33 33 40 112 173 170 311 0 65 261 316 34 85 216 268 322 18 315 283 290 288 106 64 181 20 79 34 342 34 26 2 334 12 323 2 358 320 300 299 316 326 319 319 310 293 276 154 330 323 323 331 325 319 321 305 308 312 313 311 325 332 328 329 324 323 323 325 326 323 321 322 323 322 323 324
56 345 127 138 101 32 283 353 285 295 106 22 56 126 164 36 92 7 62 353 348 3 7 352 340 187 173 198 56 33 333 303 309 338 25 38 9 33 334 40 352 306 12 5 10 316 14 338 310 283 318 307 338 332 321 318 328 323 296 342 347 340 336 336 328 326 322 315 317 318 316 321 327 330 327 325 327 328 327 326 325 325 323 320 320 322 325 326
117 124 277 337 88 358 17 85 259 254 72 13 24 54 15 80 43 285 187 168 307 10 348 318 333 288 164 193 16 358 353 8 29 38 43 65 71 67 58 57 34 37 348 22 219 5 359 338 339 350 314 303 331 327 317 309 262 212 100 9 359 344 331 320 320 323 319 321 319 323 322 328 328 329 325 327 329 328 326 326 323 318 314 316 317 321 323 325